Location: Bucquoy
(50.1391°N, 2.7097°E)
Time: 07:43:29
(UTC+00:00)

COSMOS 2487 - Pass Details

Date: 06 May 2021
Orbit: 431 x 433 km, 74.7° (Epoch: 21 June)

Event Time Altitude Azimuth Distance (km) Brightness Sun altitude
Rises 02:31:01 0° 326° (NNW) 2,417 6.3 -14.0°
Reaches altitude 10° 02:33:20 10° 312° (NW) 1,543 5.1 -13.8°
Maximum altitude 02:36:06 24° 257° (WSW) 953 3.6 -13.5°
Enters shadow 02:36:29 23° 246° (WSW) 967 3.5 -13.5°
